Dewpoint
74 75 76 73 75 75 75 76 76 75 75 73 72 72 71 71 71 71 71 69 68 67 67 66 66 67 58 58 57 57 56 55 53 54 55 59 65 64 63 65 64 65 62
73 74 74 74 74 74 76 75 73 73 72 72 72 72 71 69 69 66 64 62 61 61 62 65 63 59 64 64 57 63 59 60 57 60 58 57 62 64 64 65 63 59 62
73 74 73 73 73 73 74 73 71 71 70 68 67 66 65 64 63 63 63 61 60 60 62 62 62 61 63 60 62 59 57 59 58 57 56 57 60 59 60 63 64 63 59
73 72 73 72 72 71 72 72 71 69 67 66 65 63 62 62 64 63 62 61 61 59 61 60 60 61 61 61 59 60 59 58 58 57 56 59 59 61 61 60 60 58 62
72 72 72 73 73 70 69 69 68 66 64 63 62 61 60 60 54 57 57 58 58 58 59 58 60 61 61 60 58 60 60 61 60 57 58 57 55 57 61 61 64 64 63
72 71 71 70 69 69 67 66 65 64 63 63 61 60 62 55 54 54 54 55 57 57 58 59 60 58 59 59 58 58 58 57 57 59 57 60 59 58 58 62 60 61 58
70 70 69 68 66 65 63 63 62 63 63 62 61 61 60 56 53 53 53 54 58 58 58 58 57 55 57 54 55 56 58 58 59 59 59 59 60 58 61 61 62 62 59
68 67 66 65 63 63 63 63 62 62 61 60 59 59 58 54 52 51 51 55 57 56 57 58 56 56 54 53 52 54 55 56 59 58 59 58 59 59 60 61 62 62 63
65 64 63 62 61 61 62 62 61 60 59 58 57 59 58 53 50 50 51 53 53 54 55 57 55 53 50 50 51 53 53 53 52 54 55 56 57 57 57 58 58 60 56
62 61 62 62 61 61 62 61 61 59 58 54 56 57 56 53 49 49 50 49 51 50 54 55 50 47 46 46 47 49 48 50 48 50 54 57 58 60 58 62 61 58 55
61 61 61 61 63 62 62 61 59 59 58 58 56 56 57 55 51 49 49 49 48 50 50 50 48 46 45 45 45 44 43 46 47 49 52 53 53 54 51 55 58 57 54
61 60 60 62 58 58 61 60 59 58 57 55 54 50 48 55 49 48 48 48 50 48 48 47 46 45 44 44 42 44 45 46 46 46 48 47 46 47 48 52 56 58 58
61 61 60 59 58 59 58 57 51 53 47 46 41 40 42 45 47 48 48 48 49 48 47 46 46 45 43 42 43 44 45 43 40 40 37 38 42 43 53 54 54 57 57
60 60 59 58 56 55 49 48 43 40 39 39 39 39 40 42 43 44 45 47 48 47 47 47 45 44 44 43 44 43 40 39 40 37 39 40 41 43 46 49 53 53 53
58 56 55 53 53 49 47 46 42 42 39 38 38 39 40 41 41 42 42 45 45 44 45 42 39 39 43 48 44 39 40 40 39 37 38 39 39 43 44 47 51 50 51
55 51 48 47 47 48 43 39 44 42 43 41 41 39 42 41 41 40 40 41 42 44 44 36 36 37 37 35 35 35 36 39 37 40 39 41 40 42 43 46 48 49 51
54 50 43 43 42 42 42 44 43 41 43 42 41 41 40 39 40 40 40 41 43 43 33 33 34 35 35 35 35 35 35 37 45 39 40 41 42 42 44 44 46 47 49
49 47 43 42 40 40 40 40 39 40 41 41 41 41 40 40 40 40 40 41 34 35 31 32 33 34 34 35 35 36 37 36 35 38 39 40 41 44 44 44 45 48 50
44 42 42 41 40 41 40 39 37 40 39 39 41 40 39 41 40 41 41 36 34 31 31 32 33 33 34 35 36 38 40 37 37 37 37 39 40 44 44 44 45 45 50
44 50 47 42 40 38 38 37 37 40 40 39 39 32 28 35 35 34 34 34 32 30 31 31 31 33 35 37 37 37 37 35 37 36 37 39 42 43 42 43 44 44 47
44 45 49 43 41 39 38 40 40 39 39 38 38 28 34 33 29 30 30 30 31 31 31 33 30 32 34 36 37 36 35 34 35 36 37 39 44 41 43 43 43 43 45
40 39 37 37 41 42 40 40 39 38 38 37 33 30 36 28 25 26 29 29 31 33 33 34 32 33 34 35 37 36 34 33 34 36 39 40 43 38 40 40 41 42 43
38 37 38 39 42 44 42 37 37 38 38 36 29 25 24 25 25 27 27 29 31 32 34 34 33 34 35 36 36 35 33 34 35 37 39 40 41 38 37 37 37 37 40
38 37 37 38 39 37 36 37 38 38 37 34 27 26 26 28 25 29 28 29 30 31 32 33 35 35 36 36 35 35 34 35 35 37 38 39 39 38 36 36 37 38 38
36 38 36 36 35 34 34 35 35 35 34 28 25 26 26 28 28 26 28 29 30 30 32 34 35 36 36 37 36 35 35 31 33 33 36 40 39 40 36 35 37 37 39
35 37 36 35 35 35 34 33 35 35 32 25 25 26 27 28 27 27 29 30 29 29 32 33 35 36 35 34 34 34 32 31 32 31 33 37 35 36 35 35 37 35 37
Lifted_Index
-8 -8 -8 -8 -8 -8 -8 -8 -8 -7 -6 -5 -4 -4 -4 -3 -3 -2 -2 -1 -0 0 0 0 0 0 1 1 1 0 -0 -0 0 0 0 -1 -1 -1 -2 -2 -2 -2 -2
-8 -8 -8 -8 -8 -8 -8 -7 -7 -6 -5 -4 -4 -3 -3 -2 -2 -1 -0 0 1 1 1 0 0 0 0 0 0 -0 -0 -0 -0 -0 -0 -0 -1 -1 -1 -2 -2 -2 -2
-8 -8 -8 -8 -8 -7 -7 -6 -6 -5 -4 -3 -2 -2 -1 -1 0 1 1 2 2 2 1 1 0 0 -0 -0 -0 -0 -0 -0 0 0 0 -0 -0 -1 -1 -1 -2 -2 -2
-8 -8 -8 -8 -7 -6 -6 -5 -4 -3 -2 -1 -0 0 1 1 2 3 3 3 3 2 1 1 0 -0 -0 0 0 0 0 0 1 1 0 -0 -1 -1 -1 -1 -2 -2 -2
-8 -8 -7 -6 -6 -5 -4 -3 -2 -1 -0 0 1 2 2 3 4 5 6 5 4 2 1 1 0 -0 0 0 0 0 0 1 0 0 -0 -1 -1 -1 -1 -1 -2 -2 -2
-7 -7 -6 -5 -4 -3 -2 -1 -0 1 1 2 2 3 4 4 6 7 7 6 4 3 2 1 1 0 0 0 1 1 1 1 0 -0 -1 -1 -1 -1 -1 -1 -1 -1 -1
-6 -5 -4 -3 -2 -1 -0 1 1 2 2 3 4 4 5 6 7 8 8 6 4 2 2 1 1 1 1 1 1 1 1 1 0 -0 -0 -0 -0 -0 -0 -0 -1 -1 -1
-4 -3 -2 -1 -0 0 1 1 2 3 3 4 5 6 6 7 8 8 8 6 4 3 2 2 1 1 1 1 1 1 1 1 0 0 0 0 0 0 0 0 -0 -1 -1
-2 -1 -0 1 1 1 1 2 3 4 4 5 6 6 7 8 9 9 9 6 5 3 2 2 2 2 1 0 0 1 1 1 1 1 1 1 1 1 1 0 -0 -0 -0
0 1 1 2 2 2 2 2 3 4 5 6 6 6 7 8 9 10 9 7 6 5 4 3 3 2 1 0 0 1 1 2 2 2 1 1 1 1 1 0 0 1 1
2 2 2 3 2 2 3 3 4 5 5 6 7 7 7 8 9 10 10 9 7 6 5 5 4 3 2 2 1 1 2 2 2 2 2 2 2 2 2 2 1 2 3
3 3 3 3 3 3 3 4 5 5 6 7 8 9 8 8 9 10 10 9 8 7 7 6 6 5 4 3 3 2 2 3 3 4 4 5 5 5 4 3 3 3 4
4 4 4 4 4 4 5 5 6 8 9 9 10 10 10 9 10 10 10 9 8 8 8 8 7 6 5 5 4 4 5 5 6 7 8 8 8 7 6 4 4 4 5
4 4 4 5 5 6 7 8 9 11 12 12 12 11 11 10 11 10 9 8 8 9 9 9 9 7 6 6 7 8 8 8 9 9 10 10 9 8 6 5 5 5 6
4 5 5 6 6 8 9 11 12 14 14 14 14 13 12 11 10 10 9 8 9 10 10 10 10 9 8 9 10 10 10 10 10 10 10 10 10 8 7 6 5 5 5
5 6 6 7 7 8 10 12 13 14 14 14 15 14 13 12 11 11 10 10 10 11 11 11 11 11 11 11 11 11 10 10 10 10 10 10 10 9 8 7 6 5 5
6 7 8 8 8 9 10 11 11 12 12 13 13 14 14 13 13 12 11 11 11 11 11 11 12 12 12 12 12 11 11 11 11 11 10 10 10 9 8 7 7 6 5
8 8 9 9 9 10 10 10 10 10 11 11 12 12 13 13 13 13 12 11 11 11 12 12 12 12 12 12 12 12 12 11 11 11 11 10 10 9 8 7 7 6 6
9 9 9 9 10 10 10 10 10 10 10 10 11 12 13 13 12 13 12 11 11 12 12 12 12 12 13 13 13 12 12 12 12 12 11 11 10 8 7 7 7 6 6
9 9 9 9 9 10 10 9 10 10 10 10 11 12 13 12 12 12 12 12 12 12 12 12 12 12 12 12 13 12 12 12 12 12 12 11 9 8 7 6 6 6 6
9 9 9 9 9 9 9 9 9 9 9 10 11 13 13 13 13 13 13 12 12 12 12 12 12 12 12 12 12 12 13 13 13 13 12 10 8 7 7 6 6 6 5
10 10 9 9 8 8 8 9 9 9 9 10 11 13 13 13 13 13 13 12 12 12 12 12 11 11 12 12 12 12 13 13 13 13 11 10 8 7 7 6 6 6 5
10 10 10 9 9 9 9 8 8 8 9 10 12 13 13 13 13 13 13 13 12 12 11 11 11 11 11 12 12 13 13 13 13 12 10 9 8 8 7 7 6 6 6
10 10 10 10 10 10 9 9 8 9 10 11 12 13 13 13 13 13 13 12 12 12 11 11 11 11 11 12 13 13 13 13 12 11 10 9 8 8 7 7 7 6 6
11 10 11 11 11 11 10 9 9 9 10 12 13 13 13 13 13 13 12 12 12 12 11 11 11 11 12 12 13 13 13 12 11 10 9 9 8 8 8 8 7 7 6
11 11 11 11 11 10 10 9 9 10 11 12 13 13 13 13 12 12 12 12 12 12 11 11 11 11 12 13 13 13 13 12 11 10 9 9 8 8 8 8 7 7 6